This is the latest recevied weather packets stored in our database for station/object N2XP-3. If no packets are shown the sender has not sent any weather packets the latest 10 day(s).
| Time | Temp. | Humidity | Pressure | Rain* | Wind** | Luminosity | Snow |
|---|---|---|---|---|---|---|---|
| 1777997675 | 27.78° C | 43% | 1007.5 hPa | 0 mm | 2.68 m/s, 212° | - | - |
| 1777997504 | 27.22° C | 43% | 1007.5 hPa | 0 mm | 1.79 m/s, 281° | - | - |
| 1777997375 | 27.22° C | 43% | 1007.5 hPa | 0 mm | 1.79 m/s, 281° | - | - |
| 1777996769 | 27.22° C | 43% | 1007.6 hPa | 0 mm | 2.68 m/s, 191° | - | - |
| 1777996469 | 27.22° C | 42% | 1007.6 hPa | 0 mm | 2.24 m/s, 136° | - | - |
| 1777995860 | 27.22° C | 44% | 1007.8 hPa | 0 mm | 0.89 m/s, 242° | - | - |
| 1777995692 | 27.22° C | 44% | 1007.9 hPa | 0 mm | 0.89 m/s, 270° | - | - |
| 1777995560 | 27.22° C | 44% | 1007.9 hPa | 0 mm | 0.89 m/s, 270° | - | - |
| 1777994802 | 26.67° C | 45% | 1008 hPa | 0 mm | 1.34 m/s, 235° | - | - |
| 1777994653 | 26.67° C | 45% | 1008 hPa | 0 mm | 1.34 m/s, 235° | - | - |
| 1777994184 | 26.67° C | 44% | 1008.1 hPa | 0 mm | 2.24 m/s, 297° | - | - |
| 1777994050 | 26.67° C | 44% | 1008.1 hPa | 0 mm | 2.24 m/s, 297° | - | - |
| 1777993896 | 26.67° C | 44% | 1008.2 hPa | 0 mm | 1.34 m/s, 245° | - | - |
| 1777993750 | 26.67° C | 44% | 1008.2 hPa | 0 mm | 1.34 m/s, 245° | - | - |
| 1777993600 | 26.67° C | 44% | 1008.2 hPa | 0 mm | 2.68 m/s, 236° | - | - |
| 1777993448 | 26.67° C | 44% | 1008.2 hPa | 0 mm | 2.68 m/s, 236° | - | - |
| 1777993146 | 27.22° C | 43% | 1008.2 hPa | 0 mm | 1.34 m/s, 233° | - | - |
| 1777992845 | 27.22° C | 43% | 1008.3 hPa | 0 mm | 1.79 m/s, 210° | - | - |
| 1777992544 | 27.78° C | 42% | 1008.2 hPa | 0 mm | 1.79 m/s, 249° | - | - |
| 1777992240 | 27.78° C | 41% | 1008.3 hPa | 0 mm | 2.24 m/s, 269° | - | - |
| 1777992090 | 28.33° C | 41% | 1008.2 hPa | 0 mm | 2.24 m/s, 271° | - | - |
| 1777991941 | 28.33° C | 41% | 1008.2 hPa | 0 mm | 2.24 m/s, 271° | - | - |
| 1777991709 | 28.33° C | 40% | 1008.3 hPa | 0 mm | 1.34 m/s, 207° | - | - |
| 1777991641 | 28.33° C | 40% | 1008.3 hPa | 0 mm | 1.34 m/s, 207° | - | - |
| 1777991336 | 27.78° C | 41% | 1008.5 hPa | 0 mm | 1.34 m/s, 273° | - | - |
* Rain latest hour (hover to see other rain measurements)
** Current wind speed in m/s (hover to see current wind gust speed)